カタログに戻る

COSMOS 2610

運用中軍事SSO
NORAD 68758·PAYLOAD·🇷🇺 Russia

打ち上げ Apr 16, 2026 から Plesetsk Cosmodrome

Loading…

次のパス (今後24時間)

TLE

最新Source: Space-Track

元期: Sep 14, 2026, 17:29 UTC

1 68758U 26083F   26257.72879431  .00002110  00000-0  14574-3 0  9994
2 68758  97.8185  36.9361 0011869 108.6454 251.6062 15.06841086 22684

AllMySatでCOSMOS 2610をリアルタイム追跡

Download on the App Store